User: anonymous   Login
Location: Unspecified
(0.0000°N, 0.0000°E)
Time: 23:00:49
(UTC+00:00)
Language:

STARLINK-31470 - Orbit

View from above orbital plane
View from above orbital plane
View from above satellite
View from above satellite

Ground track
Ground track

The orbit is defined by the following mean orbital elements,

1 59569U          26145.46370272 +.00000000 +00000-0 +23142-4 0 00002
2 59569  43.0034 292.0206 0001694 270.4594  89.6063 15.27577579    09
Epoch (UTC): 25 May 2026 11:07:43
Eccentricity: 0.0001694
inclination: 43.0034°
perigee height: 482 km
apogee height: 484 km
right ascension of ascending node: 292.0206°
argument of perigee: 270.4594°
revolutions per day: 15.27577579
mean anomaly at epoch: 89.6063°

The dashed part of the orbit path shows where the satellite is in the earth's shadow,  

DLR